Location: Unspecified
(54.0667°N, 18.4333°E)
Time: 05:22:34
(UTC+02:00)

ISS - Pass Details

Date: 21 December 2012
Orbit: 418 x 420 km, 51.6° (Epoch: 12 August)

Event Time Altitude Azimuth Distance (km) Brightness Sun altitude
Rises 18:08:02 0° 277° (W) 2,392 1.4 -22.1°
Reaches altitude 10° 18:10:37 10° 256° (WSW) 1,543 0.2 -22.5°
Maximum altitude 18:12:55 17° 214° (SW) 1,209 -1.0 -22.8°
Enters shadow 18:14:42 12° 180° (S) 1,444 -1.0 -23.1°
